[Iaude] MPEC C57: 2024 CU [a=1.82,e=0.47,i=2.1,H=26.4]
    mpec at cfa.harvard.edu 
    mpec at cfa.harvard.edu
       
    Mon Feb  5 21:20:56 EST 2024
    
    
  
M.P.E.C. 2024-C57                              Issued 2024 February 6, 02:17 UT
     The Minor Planet Electronic Circulars contain information on unusual
         minor planets, routine data on comets and natural satellites,
         and occasional editorial announcements.  They are published
    on behalf of Division F of the International Astronomical Union by the
          Minor Planet Center, Smithsonian Astrophysical Observatory,
                          Cambridge, MA 02138, U.S.A.
			  
             Prepared using the Tamkin Foundation Computer Network
                              MPC at CFA.HARVARD.EDU
            URL https://www.minorplanetcenter.net/    ISSN 1523-6714
                                    2024 CU                                     
Observations:
     K24C00U* C2024 02 05.19513904 47 20.699+31 21 16.52         20.14GVEC057V00
     K24C00U  C2024 02 05.20105504 47 17.210+31 21 04.50         20.99GVEC057V00
     K24C00U  C2024 02 05.20596704 47 14.334+31 20 54.28         21.02GVEC057V00
     K24C00U  C2024 02 05.21086604 47 11.490+31 20 44.09         20.12GVEC057V00
     K24C00U KC2024 02 05.28846004 46 27.170+31 17 38.70         20.25GVEC057I52
     K24C00U KC2024 02 05.29359804 46 24.360+31 17 26.00         20.68GVEC057I52
     K24C00U KC2024 02 05.29874204 46 21.540+31 17 12.50               VEC057I52
     K24C00U KC2024 02 05.30388104 46 18.780+31 16 59.50         20.35GVEC057I52
     K24C00U 1C2024 02 05.74020 04 43 05.74 +31 02 32.3          19.7 VXEC057033
     K24C00U 1C2024 02 05.74095 04 43 05.27 +31 02 30.6          20.1 VXEC057033
     K24C00U 1C2024 02 05.74171 04 43 04.81 +31 02 29.3          20.0 VXEC057033
     K24C00U KB2024 02 05.77355204 42 45.30 +31 01 58.1                VEC057204
     K24C00U 1C2024 02 05.78694 04 42 35.27 +31 01 00.0          20.2 VXEC057033
     K24C00U 1C2024 02 05.78752 04 42 34.90 +31 00 58.5          20.5 VXEC057033
     K24C00U 1C2024 02 05.78810 04 42 34.53 +31 00 56.8          20.4 VXEC057033
     K24C00U KB2024 02 05.78921504 42 34.83 +31 01 26.4          20.3 GVEC057204
     K24C00U HB2024 02 05.80483604 42 24.32 +31 00 53.3                VEC057204
     K24C00U KC2024 02 06.01555204 40 33.04 +30 53 40.1          20.5 GVEC057H21
     K24C00U KC2024 02 06.01787604 40 31.37 +30 53 35.5                VEC057H21
     K24C00U KC2024 02 06.02595304 40 25.50 +30 53 18.7          21.0 GVEC057H21
     K24C00U KC2024 02 06.02986804 40 22.61 +30 53 10.2          20.6 GVEC057H21
     K24C00U KB2024 02 06.04429 04 40 15.214+30 52 39.32         19.4 GXEC057H36
     K24C00U KB2024 02 06.05132 04 40 09.986+30 52 24.49         20.2 GXEC057H36
     K24C00U KB2024 02 06.05808 04 40 05.009+30 52 09.84         19.7 GXEC057H36
Observer details:
033 Karl Schwarzschild Observatory, Tautenburg.  Observers S. Melnikov, C.
    Hogner, F. Ludwig, M. Hartmann, B. Stecklum.  Measurer B. Stecklum.
    1.34-m f/3 Schmidt + CCD.
204 Schiaparelli Observatory.  Observer L. Buzzi.  0.84-m f/3.5 reflector +
    CMO.
H21 Astronomical Research Observatory, Westfield.  Observer R. Holmes.
    Measurers T. Linder, R. Holmes, L. Horn.  0.76-m f/3.0 astrograph + CCD.
H36 Sandlot Observatory, Scranton.  Observer G. Hug.  0.56-m f/4.8 reflector +
    CMO.
I52 Steward Observatory, Mt. Lemmon Station.  Observer H. Groeller.  Measurers
    E. C. Beshore, D. Fay, J. B. Fazekas, D. C. Fuls, A. R. Gibbs, A. D.
    Grauer, H. Groeller, J. K. Hogan, R. A. Kowalski, S. M. Larson, G. J.
    Leonard, D. Rankin, R. L. Seaman, F. C. Shelly, K. W. Wierzchos.  1.0-m
    prime focus + CCD.
V00 Kitt Peak-Bok.  Observer K. W. Wierzchos.  Measurers M. J. Brucker, C. E.
    Woodward, D. Fay, J. B. Fazekas, D. C. Fuls, A. R. Gibbs, H. Groeller, J.
    K. Hogan, R. A. Kowalski, S. M. Larson, C. Lejoly, G. J. Leonard, R. A.
    Mastaler, R. S. McMillan, D. Rankin, R. L. Seaman, A. Serrano, F. C.
    Shelly, K. W. Wierzchos.  2.25-m reflector + 4x4K mosaic CCD.
Orbital elements:
2024 CU                                                  Earth MOID = 0.0009 AU
Epoch 2023 Sept. 13.0 TT = JDT 2460200.5                Bell                    
M 293.68151              (2000.0)            P               Q                  
n   0.39996009     Peri.  198.89203     -0.93690825     -0.34883762             
a   1.8244205      Node   320.66822     +0.32516519     -0.84580822             
e   0.4694503      Incl.    2.05240     +0.12833755     -0.40363445             
P   2.46           H   26.43          G   0.15           U   8                  
Residuals in seconds of arc
240205 V00  0.1+  0.0     240205 033  0.7-  0.0     240205 204  0.3+  0.1+
240205 V00  0.1-  0.0     240205 033  0.5-  0.3-    240206 H21  0.2-  0.0
240205 V00  0.1-  0.1-    240205 033  0.1-  0.2-    240206 H21  0.0   0.1+
240205 V00  0.1+  0.0     240205 204  0.1-  0.1-    240206 H21  0.2+  0.1+
240205 I52  0.0   0.2-    240205 033  0.3-  0.4+    240206 H21  0.1-  0.1-
240205 I52  0.0   0.1+    240205 033  0.1-  0.1+    240206 H36  0.5+  0.2-
240205 I52  0.2-  0.2-    240205 033  0.0   0.4-    240206 H36  0.1-  0.1-
240205 I52  0.0   0.0     240205 204  0.1+  0.0     240206 H36  0.2+  0.1-
Ephemeris:
2024 CU                  a,e,i = 1.82, 0.47, 2                   q = 0.9679
Date    TT    R. A. (2000) Decl.     Delta      r    Elong.  Phase     V
2024 01 07    05 47 14.5 +32 38 01   0.1529  1.1278   159.4    17.9    23.5
...
2024 01 22    05 27 11.1 +32 58 48   0.08500 1.0514   140.9    36.2    22.7
...
2024 01 30    05 12 55.0 +32 39 03   0.05151 1.0189   130.0    47.7    21.8
...
2024 02 05    04 48 55.3 +31 26 43   0.02682 0.9991   119.0    59.7    20.7
2024 02 06    04 40 35.7 +30 55 21   0.02275 0.9962   116.2    62.6    20.4
2024 02 07    04 28 56.8 +30 07 03   0.01872 0.9935   112.6    66.4    20.1
...
2024 02 13    20 14 27.6 -32 53 04   0.0082110.9799    27.8   151.9    24.8
...
2024 02 21    18 01 49.6 -34 22 54   0.04030 0.9703    61.7   116.2    24.0
...
2024 03 07    17 50 14.2 -33 45 09   0.1008  0.9778    78.8    95.4    24.8
M. P. C. Staff               (C) Copyright 2024 MPC           M.P.E.C. 2024-C57
    
    
More information about the Iaude
mailing list